User: anonymous   Login
Location: ????? ????
(37.9717°N, 23.4051°E)
Time: 12:18:12
(UTC+00:00)
Language:

Cosmos 44 - Orbit

View from above orbital plane
View from above orbital plane
View from above satellite
View from above satellite

Ground track
Ground track

The orbit data is extracted from the following two-line orbital elements,

1 00876U 64053A   24173.70880467  .00000571  00000-0  11549-3 0  9992
2 00876  65.0611 307.9778 0140110 194.2548 165.4585 14.64733785182376
Epoch (UTC): 21 June 2024 17:00:40
Eccentricity: 0.0140110
inclination: 65.0611°
perigee height: 579 km
apogee height: 777 km
right ascension of ascending node: 307.9778°
argument of perigee: 194.2548°
revolutions per day: 14.64733785
mean anomaly at epoch: 165.4585°
orbit number at epoch: 18237

The dashed part of the orbit path shows where the satellite is in the earth's shadow,  

DLR